Tracking 31027 objects as of 19-Jul-2025
HD Live streaming from Space Station
objects crossing your sky now

THORAD AGENA D DEB

Track THORAD AGENA D DEB now!
10-day predictions


NORAD ID: 4950
Int'l Code: 1970-025GL
Perigee: 1,061.3 km
Apogee: 1,398.3 km
Inclination: 99.9 °
Period: 109.9 minutes
Semi major axis: 7600 km
RCS: 0.0796 m2 (small)
Launch date: April 8, 1970
Source: United States (US)
Launch site: AIR FORCE WESTERN TEST RANGE (AFWTR)

Note: This is SATELLITE DEBRIS
Your satellite tracking list
THORAD DELTA 1 DEB
Track 1 satellite(s)




NASA's NSSDC Master Catalog

Two Line Element Set (TLE):
1 04950U 70025GL  25199.34285179 -.00000035  00000-0  10074-4 0  9992
2 04950  99.8516 112.9752 0221665  69.4527  56.8875 13.10122298639781
Source of the keplerian elements: AFSPC